Showing default

FLOCK 4BE 32, 60497

Orbit data source: Space-Track

FLOCK 4BE 32, 60497 is a payload satellite owned by Planet (US) in SSO that was launched on Fri, 16 Aug 2024 UTC via an FALCON 9 launch vehicle from the Air Force Western Test Range (AFWTR). Payload-class satellites include a variety of spacecraft equipped with specific instruments for various scientific and technological missions. These include communications satellites like Starlink; space stations such as the ISS; scientific satellites like the Hubble; Earth observation satellites from companies like Planet Labs, Umbra, and HawkEye 360; GPS; miniature CubeSats for education and research; and military/defense satellites.

Loading next visibility...
Identifier
60497, 2024-149AF
Orbit
SSO
Country
Flag of USUS
Related business
Manufacturer
Planet
Mission
Operational Commercial Imaging
Bus & Motor
CUBESAT 3U, Unknown motor
Mass
5.7 kg wet, 5.7 kg dry
Launch date (UTC)
2024-08-16 (1 year ago)
Launch vehicle
FALCON 9
Launch site
Air Force Western Test Range (AFWTR)
Object type
Payload
Rocket body
Debris
Shape & HBR
Box + 2 Pan, 1.0 m
Radar Cross Section
0.072 m², Medium (>0.1 m² and < 1m²)

Expand to show TLE details & history
Last TLE update: 23 hours ago

TLE from 23 hours ago
0 FLOCK 4BE 32
1 60497U 24149AF  26034.18024376  .00020567  00000-0  57053-3 0  9995
2 60497  97.3825 117.1122 0004625  47.5358 312.6277 15.36943795 81713
Epoch: 2026-02-03T04:19Z
TLE epoch observation values (Epoch: 2026-02-03T04:19:33.060Z)
Latitude
-0.00002°
Longitude
-81.14043°
Altitude
456.127 km
Speed
7.64 km/s
True Right ascension
07h 48m 26s
True Declination
0° 00' 00"
Sunlit
Object was in full shadow at epoch
Visualization orbit readout
Latitude
Unknown
Longitude
Unknown
Altitude
Unknown
Speed
Unknown
Apparent Right ascension
Unknown
Apparent Declination
Unknown
Sunlit
N/A
Visualization observer readout
Local Sidereal Time
05:03:38
Azimuth
Unknown
Elevation
Unknown
Doppler factor
Unknown
Orbital elements
Apogee altitude
455.254 km
Perigee altitude
448.936 km
Semi-major axis
6,830.232 km
Eccentricity
0.00046
Inclination
97.3825°
RAAN
117.1122°
Arg. of periapsis
47.5358°
True anomaly
312.58869°
Mean anomaly
312.6277°
Eccentric anomaly
312.6082°
Mean motion
3.84494 °/min
Orbital period
93.63 mins
BSTAR
0.00057053
Loading maneuver chart data...
Computing Atmospheric mass density...
Loading historical data...
Loading historical data...
Loading historical data...
Loading historical data...
Loading historical data...
Loading historical data...
Loading historical data...

Documentation

Showing up to 5 results
|